Chillicothe, MO

2:32 AM CST on December 13, 2017 (GMT -0600)
Chillicothe

Weather History for KCDJ - September, 2013

Change the Weather History Date:

Thursday, September 19, 2013

  Actual Average (KIRK) Record (KIRK)
Temperature  
Mean Temperature 80 °F -  
Max Temperature 93 °F 75 °F 95 °F (1948)
Min Temperature 69 °F 55 °F 34 °F (1991)
Cooling Degree Days 15    
Growing Degree Days 30 (Base 50)    
Moisture  
Dew Point 66 °F    
Average Humidity 70    
Maximum Humidity 93    
Minimum Humidity 41    
Precipitation  
Precipitation 1.11 in - - ()
Sea Level Pressure  
Sea Level Pressure 29.83 in    
Wind  
Wind Speed 8 mph (South)    
Max Wind Speed 16 mph    
Max Gust Speed 23 mph    
Averages and records for this station are not official NWS values.
T = Trace of Precipitation, MM = Missing Value Source: NWS Daily Summary

Daily Weather History Graph

Daily Weather History Graph

Search for Another Location

Airport or City:

Trip Planner

Search our weather history database for the weather conditions in past years. The results will help you decide how hot, cold, wet, or windy it might be!

Date:

Astronomy

Sep. 19, 2013 Rise Set
Actual Time 6:59 AM CDT 7:15 PM CDT
Civil Twilight 6:32 AM CDT 7:42 PM CDT
Nautical Twilight 6:00 AM CDT 8:14 PM CDT
Astronomical Twilight 5:28 AM CDT 8:46 PM CDT
Moon 7:14 PM CDT (9/19) 7:09 AM CDT (9/19)
Length of Visible Light 13h 10m
Length of Day
12h 16m
Full, 100% of the Moon is Illuminated
Sep 19
Full
Sep 26
Last Quarter
Oct 4
New
Oct 11
First Quarter
Oct 18
Full

Hourly Weather History & Observations

Time (CDT) Temp. Heat Index Dew Point Humidity Pressure Visibility Wind Dir Wind Speed Gust Speed Precip Events Conditions
12:52 AM 75.0 °F - 68.0 °F 79% 29.85 in - South 9.2 mph - N/A   Unknown
1:52 AM 75.0 °F - 68.0 °F 79% 29.85 in - South 5.8 mph - N/A   Unknown
2:52 AM 73.9 °F - 68.0 °F 82% 29.84 in - SSE 4.6 mph - N/A   Unknown
3:52 AM 73.0 °F - 68.0 °F 84% 29.85 in - South 6.9 mph - N/A   Unknown
4:52 AM 72.0 °F - 66.9 °F 84% 29.84 in - South 6.9 mph - N/A   Unknown
5:52 AM 72.0 °F - 66.9 °F 84% 29.84 in - South 6.9 mph - N/A   Unknown
6:52 AM 73.0 °F - 66.9 °F 81% 29.85 in - South 6.9 mph - N/A   Unknown
7:52 AM 73.9 °F - 66.9 °F 79% 29.85 in - South 6.9 mph - N/A   Unknown
8:52 AM 77.0 °F - 66.9 °F 71% 29.85 in - South 10.4 mph - N/A   Unknown
9:52 AM 80.1 °F 82.3 °F 66.9 °F 64% 29.86 in - SSW 9.2 mph 21.9 mph N/A   Unknown
10:52 AM 84.9 °F 87.6 °F 66.9 °F 55% 29.85 in - South 11.5 mph 21.9 mph N/A   Unknown
11:52 AM 87.1 °F 89.9 °F 66.9 °F 51% 29.84 in - SSW 13.8 mph 19.6 mph N/A   Unknown
12:52 PM 87.1 °F 89.9 °F 66.9 °F 51% 29.83 in - South 11.5 mph - N/A   Unknown
1:52 PM 91.0 °F 94.3 °F 66.9 °F 45% 29.80 in - South 12.7 mph 21.9 mph N/A   Unknown
2:52 PM 91.9 °F 94.5 °F 66.0 °F 42% 29.77 in - SSW 13.8 mph 23.0 mph N/A   Unknown
3:52 PM 91.9 °F 94.5 °F 66.0 °F 42% 29.73 in - South 16.1 mph 23.0 mph N/A   Unknown
4:52 PM 91.0 °F 92.6 °F 64.0 °F 41% 29.73 in - South 15.0 mph 21.9 mph N/A   Unknown
5:52 PM 89.1 °F 90.3 °F 64.0 °F 43% 29.75 in - SSW 9.2 mph - N/A   Unknown
6:52 PM 71.1 °F - 64.9 °F 81% 29.86 in - WNW 11.5 mph 21.9 mph N/A   Unknown
7:52 PM 69.1 °F - 66.0 °F 90% 29.84 in - East 5.8 mph - 0.78 in   Unknown
8:52 PM 69.1 °F - 66.0 °F 90% 29.90 in - South 5.8 mph - 0.13 in   Unknown
9:52 PM 69.1 °F - 66.0 °F 90% 29.85 in - SE 3.5 mph - 0.18 in   Unknown
10:52 PM 69.1 °F - 66.9 °F 93% 29.88 in - Variable 4.6 mph - 0.02 in   Unknown
11:52 PM 69.1 °F - 64.9 °F 87% 29.86 in - NW 4.6 mph - N/A   Unknown